Back to catalog

STARLINK-36360

AliveCommunicationsSSO
NORAD 68402·PAYLOAD·🇺🇸 United States

Launched Mar 26, 2026 from Vandenberg Space Force Base

Loading…

Next Passes (next 24 hours)

TLE

FreshSource: CelesTrak SupGP

Epoch: Sep 14, 2026, 16:09 UTC

1 68402C 26063Y   26257.67340278  .00033019  00000+0  10258-2 0  2576
2 68402  97.2858  38.6329 0001016  93.5097  14.8116 15.33396661    18

Track STARLINK-36360 in real time with AllMySat

Download on the App Store